Weather in Borujerd

Iran     33°53′48″N   48°45′21″E
temp.,
°C
wind,
m/s
gust,
m/s
humid.,
%
clouds,
%
prec.,
mm/h
press.,
hPa
HPBL,
m
17 august, wed
wed1701:30+22ssw11171 0.0 100911
04:30+21ene11180 0.0 100811
07:30+22ne00200 0.0 101011
10:30+30e12100 0.0 10081113
13:30+34ne6460 0.0 10064322
16:30+34ne7474 0.0 10044757
19:30+30ene6992 0.0 1005324
22:30+23ese12140 0.0 100814
18 august, thu
thu1801:30+21ese22153 0.0 100811
04:30+20n22170 0.0 100811
07:30+20n22190 0.0 100912
10:30+28ese12120 0.0 10081120
13:30+32ne1480 0.0 10053578
16:30+33nne75814 0.0 10024446
19:30+29ne581083 0.0 1003235
22:30+22e111823 0.0 100611
19 august, fri
fri1901:30+20ene11210 0.0 100711
04:30+18nne11220 0.0 100611
07:30+20n22210 0.0 100813
10:30+27e12130 0.0 10071027
13:30+31n1390 0.0 10043233
16:30+32wnw438100 0.0 10024486
19:30+29ene451077 0.0 1003184
22:30+22ene221411 0.0 100611
20 august, sat
sat2001:30+20ene11162 0.0 100711
04:30+18ne11175 0.0 100711
07:30+20nne111820 0.0 100911
10:30+27se22104 0.0 1007958
13:30+32s33986 0.0 10044692
16:30+30nw6612100 0.0 10032610
19:30+27se571586 0.0 1005303
22:30+22ese33202 0.0 100827
21 august, sun
sun2101:30+19ne12203 0.0 100811
04:30+17nne22182 0.0 100811
07:30+18n211885 0.0 101011
10:30+25ne12125 0.0 10081035
13:30+30se23124 0.0 10044068
16:30+29n641393 0.0 10041553
19:30+24sse672148 0.0 1007635
22:30+23ene2222100 0.0 100720